Regional Weather Roundup
Issued by NWS New Orleans/Baton Rouge, LA

Home | Current Version | Previous Version | Text Only | Print | Product List | Glossary On
Versions: 1 2 3 4 5 6 7 8 9 10 11 12 13 14 15 16 17 18 19 20 21 22 23 24 25 26 27 28 29 30 31 32 33 34 35 36 37 38 39 40 41 42 43 44 45 46 47 48 49 50
000
ASUS44 KLIX 010910
RWRLIX
NEW ORLEANS REGIONAL WEATHER ROUNDUP
NATIONAL WEATHER SERVICE NEW ORLEANS LA
400 AM CDT TUE SEP 01 2015

NOTE: "FAIR" INDICATES FEW OR NO CLOUDS BELOW 12,000 FEET WITH NO
      SIGNIFICANT WEATHER AND/OR OBSTRUCTIONS TO VISIBILITY.
      SKY/WX - SKY CONDITION AND SIGNIFICANT WEATHER.
      TMP - AIR TEMPERATURE.     DP    - DEWPOINT TEMPERATURE.
      RH  - RELATIVE HUMIDITY.   PRES  - PRESSURE.
      HI  - HEAT INDEX.          WCI   - WIND CHILL INDEX.

*  THESE STATIONS ARE NOT NWS OR FAA STATIONS AND ARE NOT UNDER
   NWS QUALITY CONTROL.

LAZ038-040-048-061>063-065>067-069-011000-
SOUTHEAST LOUISIANA

CITY           SKY/WX    TMP DP  RH WIND       PRES   REMARKS
N.O. AUDUBON   NOT AVBL
N.O. INTL ARPT MOCLDY    77  71  82 CALM      30.03F
N.O. LAKEFRONT PTCLDY    77  69  76 S3        30.04F
N.O. DOWNTOWN*   N/A     81  72  74 CALM      30.05S
RESERVE*         N/A     74  72  93 CALM      30.04S FOG
SLIDELL        PTCLDY    68  68 100 N3        30.03F
BATON ROUGE    MOCLDY    73  71  93 E3        30.04S
BOOTHVILLE     CLEAR     77  72  84 CALM      30.04S
BELLE CHASSE   PTCLDY    71  69  93 CALM      30.04S FOG
BOGALUSA*      NOT AVBL
GALLIANO*      MOSUNNY   71  70  96 CALM      30.03S
NEW ROADS*       N/A     73  72  95 CALM      30.03F
GONZALES*        N/A     73  73 100 CALM      30.03S
HAMMOND*       PTCLDY    72  70  94 CALM      30.06S FOG
HOUMA*         MOCLDY    73  72  95 CALM      30.02F
PORT FOURCHON* SUNNY     82  70  65 CALM      30.03F

$$

MSZ070-080>082-011000-
SOUTHERN MISSISSIPPI

CITY           SKY/WX    TMP DP  RH WIND       PRES   REMARKS
MCCOMB         PTCLDY    71  70  96 CALM      30.05F
GULFPORT       CLEAR     72  69  90 CALM      30.03S
BILOXI         CLEAR     75  71  87 N2        30.03S
PASCAGOULA     CLEAR     68  68 100 CALM      30.04S FOG

$$

COASTAL OBSERVATIONS
LAKE AND NEARSHORE STATIONS

STATION/POSITION TIME  TEMP    WIND        PRES    WAVE
                       AIR SEA DIR/SP/G            HT/PER
                 (UTC) (F)     (DEG/KT/KT) (MB)    (FT/S)
PASCAGOULA       0800   80     280/  4/  5 1016.7
WAVELAND YACHT   0800   76 84  310/  2/  2 1017.5
GRAND ISLE       0800   82 86  160/  2/  3 1017.2
SOUTHWEST PASS   0800   83 86  190/  5/  6 1017.1
NEW CANAL        0800   80 85  210/  1/  2 1016.5
SHELL BEACH      0800   80 85  250/  3/  3 1016.6

OFFSHORE STATIONS

STATION/POSITION TIME  TEMP    WIND        PRES    WAVE
                       AIR SEA DIR/SP/G            HT/PER
                 (UTC) (F)     (DEG/KT/KT) (MB)    (FT/S)
64 S DAUPHIN ISL 0850   82 85  360/  2/  2 1017.2    1/ 7

$$




USA.gov is the U.S. government's official web portal to all federal, state and local government web resources and services.